[Iaude] MPEC S87: 2019 SH3 [a=2.15,e=0.61,i=7.1,H=25.7]

mpec at marsden.cfa.harvard.edu mpec at marsden.cfa.harvard.edu
Wed Sep 25 08:40:22 EDT 2019


M.P.E.C. 2019-S87                            Issued 2019 September 25, 12:39 UT

     The Minor Planet Electronic Circulars contain information on unusual
         minor planets and routine data on comets.  They are published
    on behalf of Division F of the International Astronomical Union by the
          Minor Planet Center, Smithsonian Astrophysical Observatory,
                          Cambridge, MA 02138, U.S.A.

             Prepared using the Tamkin Foundation Computer Network

                              MPC at CFA.HARVARD.EDU
            URL https://www.minorplanetcenter.net/    ISSN 1523-6714

                                    2019 SH3                                    


Observations:
     K19S03H* C2019 09 22.38495 23 51 27.825-13 26 19.24         20.7 wUES087F51
     K19S03H  C2019 09 22.39608 23 51 27.909-13 25 44.71         20.6 wUES087F51
     K19S03H  C2019 09 22.40720 23 51 27.985-13 25 09.93         20.5 wUES087F51
     K19S03H  C2019 09 24.39337 23 54 13.899-11 02 53.17         20.1 wUES087F51
     K19S03H  C2019 09 24.41435 23 54 14.677-11 00 51.35         19.9 wUES087F51
     K19S03H KC2019 09 24.93635823 55 18.50 -10 05 50.9          19.4 GVES087L01
     K19S03H KC2019 09 24.93745723 55 18.59 -10 05 43.3          19.4 GVES087L01
     K19S03H KC2019 09 24.93900623 55 18.67 -10 05 32.4          19.6 GVES087L01
     K19S03H KC2019 09 24.94010723 55 18.75 -10 05 24.5          19.6 GVES087L01
     K19S03H KC2019 09 25.20033023 55 56.96 -09 32 49.7          19.5 VuES087H21
     K19S03H KC2019 09 25.20325123 55 57.17 -09 32 27.1          19.7 VuES087H21
     K19S03H KC2019 09 25.20633923 55 57.42 -09 32 02.6          19.8 VuES087H21

Observer details:
F51 Pan-STARRS 1, Haleakala.  Observers J. Bulger, T. Lowe, A. Schultz, M. 
   Willman.  Measurers K. Chambers, S. Chastel, T. de Boer, L. Denneau, J. 
   Fairlamb, H. Flewelling, M. Huber, C.-C. Lin, E. Magnier, Y. Ramanjooloo, R. 
   Wainscoat, R. Weryk.  1.8-m Ritchey-Chretien + CCD.
H21 Astronomical Research Observatory, Westfield.  Observer R. Holmes.  
    Measurers S. Foglia, L. Buzzi, T. Linder, R. Holmes.  0.76-m f/3.0 
   astrograph + CCD.
L01 Visnjan Observatory, Tican.  Observer K. Korlevic.  1.0-m f/2.9 reflector + 
   CCD.

Orbital elements:
2019 SH3                                                 Earth MOID = 0.0066 AU
Epoch 2019 Apr. 27.0 TT = JDT 2458600.5                 Veres
M 298.99748              (2000.0)            P               Q
n   0.31248073     Peri.   59.11182     +0.45367562     -0.89112690
a   2.1507366      Node     3.93717     +0.76990398     +0.38715429
e   0.6119385      Incl.    7.06297     +0.44880542     +0.23665249
P   3.15           H   25.7           G   0.15           U   7
Residuals in seconds of arc
190922 F51  0.0   0.0     190924 F51  0.1+  0.0     190924 L01  0.3-  0.0
190922 F51  0.0   0.0     190924 L01  0.0   0.1+    190925 H21  0.2+  0.1+
190922 F51  0.0   0.0     190924 L01  0.2+  0.0     190925 H21  0.1-  0.2-
190924 F51  0.0   0.0     190924 L01  0.3-  0.1-    190925 H21  0.1+  0.1+

Ephemeris:
2019 SH3                 a,e,i = 2.15, 0.61, 7                   q = 0.8346
Date    TT    R. A. (2000) Decl.     Delta      r    Elong.  Phase     V
2019 08 26    23 41 43.0 -17 16 27   0.3123  1.3062   158.4    16.6    24.6
...
2019 09 10    23 46 03.1 -17 07 59   0.1692  1.1716   165.4    12.5    22.9
...
2019 09 18    23 48 28.7 -15 47 30   0.10000 1.1024   166.2    12.5    21.7
...
2019 09 24    23 53 30.9 -11 37 04   0.05030 1.0527   168.1    11.4    20.0
2019 09 25    23 55 26.2 -09 55 31   0.04220 1.0446   169.3    10.3    19.6
2019 09 26    23 58 13.8 -07 25 22   0.03417 1.0367   171.2     8.5    19.0
...
2019 10 02    11 01 00.7 +45 55 06   0.01767 0.9906    53.0   126.2    22.3
...
2019 10 10    11 36 49.8 +25 25 31   0.08163 0.9354    37.6   139.4    26.9
...
2019 10 25    11 47 39.8 +20 15 47   0.2087  0.8596    44.9   125.2    27.2

A. U. Tomatic                (C) Copyright 2019 MPC           M.P.E.C. 2019-S87




More information about the Iaude mailing list